Location: Detroit
(42.3310°N, 83.0460°W)
Time: 19:09:34
(UTC-04:00)

Courier 1B Rocket - Pass Details

Date: 21 April 2024
Orbit: 920 x 1201 km, 28.2° (Epoch: 09 September)

Event Time Altitude Azimuth Distance (km) Brightness Sun altitude
Exits shadow 05:49:01 - 222° (SW) 3,136 7.1 -9.8°
Reaches altitude 10° 05:49:21 10° 220° (SW) 3,049 7.0 -9.7°
Maximum altitude 05:55:02 24° 171° (S) 2,143 6.7 -8.8°
Drops below altitude 10° 06:00:29 10° 121° (ESE) 2,902 8.0 -7.8°
Sets 06:03:42 0° 108° (ESE) 3,807 8.9 -7.3°
